Location: Holmbach
(49.5093°N, 8.8411°E)
Time: 15:59:47
(UTC+00:00)

PSLV R/B - Pass Details

Date: 17 June 2025
Orbit: 395 x 425 km, 97.7° (Epoch: 19 July)

Event Time Altitude Azimuth Distance (km) Brightness Sun altitude
Exits shadow 20:45:24 12° 158° (SSE) 1,451 5.4 -8.8°
Maximum altitude 20:48:29 72° 75° (ENE) 467 3.4 -9.1°
Drops below altitude 10° 20:51:49 10° 350° (N) 1,562 7.3 -9.5°
Sets 20:53:50 0° 349° (NNW) 2,433 8.5 -9.7°
